[[{"header":{"parameterUnit":"m.s-1","parameterCategory":1,"la1":30.2991,"la2":30.254,"lo1":-89.0895,"lo2":-89.0444,"dy":0.0017,"dx":0.0017,"nx":28,"ny":28,"refTime":"2025-08-10T03:00:00:Z","depth":0,"parameterNumber":2,"parameterNumberName":"U-component_of_WINDS"},"data":[0,0,0,0,0,0,0,0,0,0,0,0,0,0,0,0,0,0,0,0,0,0,0,0,0,0,0,0,0,0,0,0,0,0,0,0,0,0,0,0,0,0,0,0,0,0,0,0,0,0,0,0,0,0,0,0,0,0,-3.5914,-3.5915,0,-3.6015,-3.6016,-3.6017,-3.6031,-3.603,-3.6029,-3.6028,-3.6128,-3.6132,-3.6135,0,0,0,0,0,0,0,0,0,0,0,0,0,-3.5729,-3.5732,-3.5913,-3.5915,-3.5916,-3.6015,-3.6016,-3.6018,-3.6031,-3.603,-3.6029,-3.6028,-3.6127,-3.6131,-3.6136,0,0,0,0,0,0,0,0,0,0,0,0,0,-3.5817,-3.5733,-3.5913,-3.5935,-3.5938,-3.6015,-3.6016,-3.6018,-3.6031,-3.603,-3.6029,-3.6027,-3.6126,-3.6131,-3.6136,-3.6197,0,0,-3.6152,-3.6155,0,0,0,0,0,0,0,0,-3.5812,-3.5824,-3.593,-3.5933,-3.5937,-3.6009,-3.5988,-3.6078,-3.6032,-3.5996,-3.6028,-3.6027,-3.6089,-3.6098,-3.612,-3.6202,-3.6206,-3.6153,-3.6156,-3.6158,-3.616,0,0,0,0,0,0,0,-3.5806,-3.582,-3.5954,-3.5932,-3.5936,-3.5938,-3.595,-3.6005,-3.6049,-3.5999,-3.6,-3.6012,-3.6091,-3.6115,-3.6122,-3.6208,-3.6153,-3.6157,-3.6161,-3.6163,-3.6345,-3.6346,0,0,0,0,0,0,-3.5796,-3.5815,-3.595,-3.5957,-3.587,-3.5943,-3.5955,-3.5987,-3.6049,-3.6057,-3.6013,-3.6012,-3.6106,-3.6116,-3.6126,-3.62,-3.6158,-3.6163,-3.6166,-3.6343,-3.6345,-3.6347,0,0,0,0,0,0,-3.5792,-3.5808,-3.5946,-3.5886,-3.5904,-3.5948,-3.5983,-3.599,-3.6014,-3.606,-3.6067,-3.6029,-3.6105,-3.6118,-3.618,-3.6204,-3.6166,-3.6171,-3.6341,-3.6344,-3.6346,-3.635,0,0,0,0,0,0,-3.5787,-3.5807,-3.5831,-3.5887,-3.5907,-3.5999,-3.5985,-3.5993,-3.6023,-3.6023,-3.6077,-3.6084,-3.6105,-3.6172,-3.6185,-3.621,-3.6175,-3.6339,-3.6342,-3.6345,-3.6348,-3.6352,-3.6356,0,0,0,0,0,-3.578,-3.5828,-3.5832,-3.5849,-3.5938,-3.6,-3.6012,-3.6036,-3.6025,-3.6049,-3.6079,-3.6082,-3.62,-3.6178,-3.6193,-3.622,-3.6337,-3.6341,-3.6345,-3.6346,-3.6351,-3.6356,0,0,0,0,0,0,-3.5772,-3.5835,-3.5841,-3.5908,-3.5949,-3.6003,-3.6034,-3.6042,-3.6086,-3.6083,-3.6111,-3.6123,-3.6183,-3.6208,-3.6182,-3.6282,-3.6267,-3.6274,-3.6263,-3.6269,-3.6273,-3.6264,-3.6179,0,0,0,0,0,-3.5779,-3.5825,-3.5877,-3.5931,-3.5951,-3.5989,-3.6017,-3.6033,-3.6076,-3.6093,-3.6127,-3.6168,-3.6214,-3.6243,-3.6288,-3.6353,-3.6364,-3.6379,-3.6383,-3.6387,-3.6391,-3.6426,-3.6433,-3.6359,-3.6359,-3.6359,0,0,-3.5791,-3.5831,-3.5858,-3.593,-3.5964,-3.601,-3.6003,-3.6053,-3.6086,-3.61,-3.6159,-3.6186,-3.6234,-3.6296,-3.6326,-3.6319,-3.6415,-3.6391,-3.6393,-3.6396,-3.643,-3.6437,-3.6443,-3.6361,-3.6361,-3.6361,0,0,-3.5837,-3.5873,-3.5921,-3.5956,-3.6007,-3.6033,-3.6044,-3.6098,-3.6116,-3.6177,-3.6188,-3.6229,-3.6308,-3.6341,-3.6368,-3.6428,-3.6432,-3.6442,-3.6462,-3.6496,-3.6502,-3.6507,-3.6527,-3.6533,-3.6447,-3.6447,-3.6447,0,-3.5846,-3.5916,-3.5945,-3.5994,-3.6024,-3.6041,-3.6089,-3.6121,-3.6184,-3.6204,-3.6197,-3.6296,-3.6329,-3.6399,-3.6414,-3.6437,-3.645,-3.6434,-3.6499,-3.6505,-3.651,-3.6529,-3.6536,-3.6448,-3.6448,-3.6448,-3.6448,0,-3.5923,-3.5973,-3.6005,-3.6067,-3.6102,-3.615,-3.6184,-3.6216,-3.623,-3.6255,-3.6316,-3.6358,-3.6411,-3.6429,-3.6442,-3.6501,-3.6496,-3.6494,-3.6478,-3.6517,-3.6535,-3.6543,-3.6449,-3.6449,-3.6449,-3.6448,0,0,-3.5964,-3.6042,-3.6053,-3.6081,-3.614,-3.6178,-3.6228,-3.6281,-3.6306,-3.6351,-3.6391,-3.6458,-3.6457,-3.6488,-3.6505,-3.6535,-3.6578,-3.653,-3.6531,-3.6535,-3.6644,-3.6643,-3.6651,-3.6583,-3.6585,-3.6586,-3.6639,0,-3.6015,-3.6103,-3.613,-3.6204,-3.6248,-3.6266,-3.6309,-3.6349,-3.6375,-3.6416,-3.6445,-3.6491,-3.6487,-3.6506,-3.6537,-3.6566,-3.66,-3.6564,-3.6619,-3.662,-3.6603,-3.6661,-3.666,-3.6708,-3.6647,-3.6648,-3.6649,0,-3.6085,-3.6131,-3.6209,-3.6262,-3.6282,-3.632,-3.6371,-3.6411,-3.6457,-3.6474,-3.6509,-3.6524,-3.6575,-3.656,-3.663,-3.6604,-3.6629,-3.6648,-3.665,-3.6653,-3.6635,-3.6663,-3.6724,-3.673,-3.6661,-3.666,-3.6659,0,-3.6103,-3.6185,-3.6242,-3.6266,-3.633,-3.6356,-3.6384,-3.6429,-3.6459,-3.6504,-3.6524,-3.6574,-3.66,-3.6639,-3.6666,-3.6653,-3.6733,-3.6721,-3.6747,-3.6746,-3.676,-3.6758,-3.6822,-3.6781,-3.6781,-3.6781,-3.678,0,-3.6155,-3.6201,-3.6251,-3.6285,-3.6338,-3.637,-3.642,-3.6449,-3.6489,-3.6529,-3.6548,-3.6585,-3.6621,-3.6663,-3.6685,-3.6739,-3.6751,-3.6765,-3.6769,-3.6761,-3.6759,-3.6775,-3.6772,-3.6782,-3.6782,-3.6782,-3.6781,0,-3.6183,-3.6218,-3.6281,-3.6338,-3.6353,-3.6389,-3.6437,-3.6471,-3.6499,-3.6549,-3.6563,-3.6606,-3.6656,-3.6689,-3.6752,-3.6767,-3.6824,-3.683,-3.6809,-3.681,-3.6834,-3.683,-3.6909,-3.692,-3.6873,-3.6873,-3.6874,0,-3.6212,-3.6248,-3.6309,-3.6338,-3.6366,-3.6412,-3.6443,-3.6477,-3.6508,-3.6565,-3.6591,-3.6643,-3.6686,-3.6765,-3.6801,-3.6849,-3.6854,-3.6879,-3.6861,-3.6852,-3.6852,-3.6848,-3.6851,-3.688,-3.6881,-3.6881,-3.6881,0,-3.6259,-3.6275,-3.632,-3.6372,-3.6409,-3.6451,-3.6493,-3.6515,-3.6556,-3.659,-3.6642,-3.6675,-3.6741,-3.6791,-3.6844,-3.6872,-3.6882,-3.6887,-3.6895,-3.6885,-3.6871,-3.6877,-3.6813,-3.6884,-3.6884,-3.6883,-3.6883,-3.6883,-3.6287,-3.6319,-3.6367,-3.6417,-3.6453,-3.6492,-3.6526,-3.6559,-3.6603,-3.6659,-3.6677,-3.673,-3.6776,-3.6848,-3.6877,-3.6919,-3.6916,-3.6928,-3.6931,-3.6933,-3.6931,-3.6867,-3.6929,-3.6929,-3.6929,-3.6929,-3.6929,0,-3.6333,-3.6365,-3.6411,-3.6469,-3.6508,-3.6518,-3.6565,-3.6596,-3.6643,-3.6686,-3.6728,-3.6787,-3.6837,-3.6878,-3.6929,-3.6954,-3.6961,-3.6966,-3.6963,-3.6969,-3.6932,-3.6919,-3.696,-3.696,-3.696,-3.696,-3.696,-3.696,-3.6361,-3.6416,-3.6438,-3.6511,-3.6543,-3.6597,-3.6622,-3.6658,-3.6692,-3.6758,-3.68,-3.6827,-3.6869,-3.6923,-3.6968,-3.6979,-3.6996,-3.7,-3.7012,-3.6976,-3.6972,-3.6968,-3.6956,-3.7004,-3.7004,-3.7045,-3.7045,-3.7045]},{"header":{"parameterUnit":"m.s-1","parameterCategory":1,"la1":30.2991,"la2":30.254,"lo1":-89.0895,"lo2":-89.0444,"dy":0.0017,"dx":0.0017,"nx":28,"ny":28,"refTime":"2025-08-10T03:00:00:Z","depth":0,"parameterNumber":3,"parameterNumberName":"V-component_of_WINDS"},"data":[0,0,0,0,0,0,0,0,0,0,0,0,0,0,0,0,0,0,0,0,0,0,0,0,0,0,0,0,0,0,0,0,0,0,0,0,0,0,0,0,0,0,0,0,0,0,0,0,0,0,0,0,0,0,0,0,0,0,2.9669,2.9669,0,2.9696,2.9697,2.9697,2.9654,2.9652,2.9651,2.965,2.9676,2.9678,2.968,0,0,0,0,0,0,0,0,0,0,0,0,0,2.9579,2.958,2.9669,2.9669,2.9669,2.9696,2.9697,2.9697,2.9654,2.9652,2.9651,2.9649,2.9676,2.9678,2.9681,0,0,0,0,0,0,0,0,0,0,0,0,0,2.9613,2.9581,2.9669,2.9651,2.965,2.9696,2.9697,2.9697,2.9655,2.9652,2.965,2.9648,2.9675,2.9678,2.9681,2.9745,0,0,2.9691,2.9692,0,0,0,0,0,0,0,0,2.9611,2.9616,2.9654,2.9653,2.9651,2.9669,2.9675,2.9713,2.9655,2.9653,2.965,2.9647,2.9676,2.9679,2.9689,2.9746,2.9747,2.9691,2.9693,2.9694,2.9695,0,0,0,0,0,0,0,2.9609,2.9615,2.968,2.9654,2.9653,2.9642,2.9644,2.9682,2.9676,2.9653,2.965,2.9654,2.9675,2.9686,2.9689,2.9748,2.9691,2.9694,2.9696,2.9697,2.986,2.9862,0,0,0,0,0,0,2.9609,2.9613,2.9679,2.968,2.9625,2.9646,2.9648,2.9666,2.9676,2.9675,2.9656,2.9652,2.9681,2.9685,2.969,2.9765,2.9694,2.9697,2.9699,2.9857,2.986,2.9863,0,0,0,0,0,0,2.9607,2.9615,2.9678,2.9646,2.9653,2.9649,2.967,2.9668,2.9678,2.9678,2.9677,2.9668,2.968,2.9685,2.9732,2.9765,2.9698,2.9701,2.9854,2.9858,2.9861,2.9917,0,0,0,0,0,0,2.9605,2.9615,2.9639,2.9647,2.9655,2.9719,2.9672,2.967,2.9684,2.9679,2.9689,2.9689,2.9679,2.9727,2.9735,2.9769,2.9704,2.9851,2.9856,2.986,2.9912,2.9922,2.993,0,0,0,0,0,2.9601,2.9653,2.964,2.9648,2.9685,2.9721,2.9726,2.9714,2.9687,2.9711,2.9711,2.9688,2.9761,2.9732,2.9741,2.9776,2.9849,2.9855,2.986,2.9908,2.992,2.993,0,0,0,0,0,0,2.9647,2.9653,2.9639,2.9695,2.9708,2.9714,2.9744,2.9727,2.9747,2.9742,2.9725,2.9728,2.9778,2.9782,2.975,2.9839,2.98,2.9808,2.9834,2.9845,2.9855,2.9852,2.9706,0,0,0,0,0,2.9664,2.9693,2.9697,2.9746,2.9753,2.9748,2.9763,2.9753,2.9765,2.977,2.9773,2.9786,2.9812,2.9829,2.9853,2.9913,2.9914,2.9941,2.995,2.9958,2.9964,2.9996,3.0008,2.9881,2.9881,2.9881,0,0,2.9699,2.9706,2.9725,2.9755,2.9764,2.9794,2.9752,2.9786,2.9808,2.9775,2.9819,2.9822,2.9836,2.9889,2.9913,2.9894,3.0,2.9965,2.9971,2.9973,3.0003,3.0015,3.0026,2.9885,2.9884,2.9883,0,0,2.9777,2.9786,2.9827,2.9837,2.9852,2.9848,2.9858,2.9867,2.9868,2.9913,2.9889,2.9915,2.996,2.997,2.9982,3.0066,3.0046,3.0075,3.0122,3.0154,3.0164,3.0173,3.0203,3.0214,3.0081,3.0081,3.0081,0,2.9818,2.9863,2.985,2.9886,2.99,2.9873,2.9915,2.9925,2.9947,2.9957,2.9936,2.9992,2.9999,3.0055,3.0076,3.0086,3.0097,3.0072,3.0164,3.0172,3.018,3.0209,3.022,3.0084,3.0084,3.0084,3.0083,0,2.9912,2.9944,2.9976,2.9998,3.0016,3.0055,3.0048,3.0067,3.0056,3.0055,3.0101,3.0109,3.0134,3.0147,3.0136,3.0202,3.0189,3.0166,3.0128,3.0196,3.0223,3.0233,3.0089,3.0088,3.0087,3.0086,0,0,3.0018,3.0035,3.0046,3.0056,3.0071,3.0095,3.0133,3.0159,3.0176,3.0192,3.0223,3.0263,3.0242,3.0255,3.0245,3.0273,3.034,3.0247,3.0247,3.0263,3.0413,3.0429,3.0442,3.0327,3.0329,3.0331,3.0411,0,3.0096,3.0161,3.0152,3.0215,3.0244,3.022,3.0253,3.0266,3.0266,3.0291,3.0291,3.032,3.029,3.0298,3.0325,3.0326,3.0369,3.032,3.0355,3.0357,3.0352,3.0456,3.0473,3.0548,3.0422,3.0423,3.0425,0,3.0195,3.0215,3.0282,3.0293,3.0305,3.0335,3.0357,3.0382,3.0396,3.0394,3.041,3.0396,3.0434,3.0396,3.0448,3.0415,3.0429,3.0432,3.0435,3.0437,3.0394,3.0459,3.0572,3.0583,3.0441,3.0439,3.0438,0,3.0265,3.0309,3.0355,3.0364,3.0379,3.04,3.0407,3.0419,3.0436,3.0456,3.0466,3.0491,3.0504,3.0523,3.0516,3.0489,3.057,3.0531,3.0569,3.057,3.0586,3.0585,3.0702,3.0597,3.0597,3.0597,3.0597,0,3.0352,3.0393,3.0386,3.0414,3.046,3.045,3.0495,3.0499,3.0511,3.0539,3.052,3.0547,3.0536,3.0562,3.0557,3.0601,3.0608,3.0607,3.0605,3.0608,3.0608,3.0616,3.0611,3.06,3.0599,3.0599,3.0598,0,3.0437,3.0434,3.0482,3.0493,3.0496,3.053,3.0538,3.0565,3.0564,3.06,3.0608,3.0608,3.0638,3.0633,3.0667,3.0663,3.0718,3.071,3.0714,3.0711,3.075,3.0746,3.0875,3.0891,3.0777,3.0778,3.0779,0,3.0492,3.0523,3.0537,3.0555,3.0564,3.0593,3.061,3.0601,3.0619,3.0639,3.0663,3.0692,3.0714,3.0764,3.0766,3.0792,3.0784,3.0828,3.0788,3.079,3.0784,3.0782,3.0785,3.0835,3.0836,3.0837,3.0838,0,3.059,3.0587,3.0612,3.0638,3.0659,3.0678,3.0695,3.0711,3.0704,3.0725,3.0757,3.0774,3.0809,3.0838,3.0862,3.0869,3.0853,3.0851,3.0861,3.0864,3.0865,3.0865,3.0734,3.0848,3.0847,3.0846,3.0846,3.0845,3.0661,3.0688,3.0703,3.0731,3.0744,3.0761,3.0786,3.079,3.0816,3.0844,3.0837,3.0873,3.0887,3.0919,3.0929,3.0956,3.094,3.0955,3.0958,3.0962,3.0966,3.0862,3.0961,3.096,3.096,3.096,3.096,0,3.0757,3.0766,3.0793,3.0818,3.0841,3.0825,3.0844,3.0864,3.0895,3.0911,3.0934,3.097,3.0998,3.1004,3.1031,3.1052,3.1045,3.1059,3.1057,3.1059,3.0979,3.0967,3.1064,3.1064,3.1064,3.1064,3.1064,3.1064,3.081,3.0855,3.0855,3.0906,3.0914,3.0949,3.0961,3.0977,3.0989,3.103,3.1054,3.1058,3.107,3.1098,3.1123,3.1124,3.1135,3.1152,3.115,3.1075,3.1064,3.1054,3.1043,3.1154,3.1154,3.1227,3.1228,3.1228]}]]